Starlink 3843

operational
NORAD ID: 52341 Int'l Des: 2022-045 Owner: SPXS Country: US Constellation: starlink
LEOCIRCULAR

About Starlink 3843

Description loading...

Live Position

Loading 3D Globe...

Upcoming Passes

Altitude History

Altitude vs Time

uPlot chart will show altitude changes over time

Two-Line Element Set

1 52341U 22045L 25298.42945507 -.00000062 00000-0 14176-4 0 9992
2 52341 53.2151 96.2776 0001326 85.6432 274.4712 15.08842455195229
Epoch: Oct 25, 2025 • Age: 9 hours

Current Status

Altitude 541.4 km
Velocity 7.60 km/s
Sub-Earth Point 33.12°N, 71.66°W
Launch Date Apr 29, 2022
Age 3.4 years
Type internet

Technical Details

Classification Payload
Mass 297.00 kg
Dry Mass 275.00 kg
Total Mass 297.00 kg
Length 0.20 m
Diameter 2.80 m
Span 9.00 m
Shape Box + pan
Manufacturer SPXS
Bus Type Starlink
Phase Status In Orbit
Owner/State SPXS/US

Large Constellations

Loading constellations...